Probability
0 0 0 0 0 0 0 0 0 3 6 6 10 6 6 6 10 10 13 10 6 16 13 16 19 23 19 26 35 35 32 32 29 29 29 19 19 16 16 16 13 16 16 13
0 0 0 0 0 0 0 0 0 0 3 0 3 6 6 6 6 13 10 10 13 10 10 10 13 19 23 26 29 35 32 26 29 29 29 26 19 16 19 13 13 16 16 16
0 0 0 0 0 0 0 0 0 0 0 3 6 6 6 10 10 10 10 10 13 13 10 10 10 16 19 23 26 16 32 26 26 29 29 23 19 16 6 16 13 16 16 16
0 0 0 0 0 0 0 0 0 0 0 0 0 0 6 10 13 6 3 6 10 10 3 6 10 16 19 19 23 23 26 26 26 26 19 19 16 6 16 19 16 23 19 13
0 0 0 0 0 0 0 0 0 0 0 0 0 0 0 10 10 6 3 6 3 13 6 16 10 16 16 16 19 19 16 23 23 23 26 23 19 16 10 16 13 19 23 16
0 0 0 0 0 0 0 0 0 0 0 0 0 0 0 6 10 6 6 6 6 13 6 13 16 16 19 19 13 16 13 16 19 16 19 16 13 16 16 16 19 13 13 13
0 0 0 0 0 0 0 0 0 0 0 0 0 0 3 0 0 0 6 10 10 10 10 13 16 19 23 13 16 10 13 16 16 13 13 13 13 13 19 16 19 13 6 6
0 0 0 0 0 0 0 0 0 0 0 0 0 0 3 3 6 3 10 6 3 3 3 3 16 13 13 10 13 16 16 16 13 13 13 13 16 13 10 10 10 3 3 3
0 0 0 0 0 0 0 0 0 0 0 0 0 3 0 3 3 3 10 10 6 3 3 3 10 13 13 10 10 13 13 16 16 16 13 10 13 10 6 10 10 3 6 3
0 0 0 0 0 0 0 0 0 0 0 0 0 0 6 10 3 0 6 6 6 3 6 6 10 10 10 13 13 13 16 16 23 19 16 3 6 10 6 3 3 3 3 6
0 0 0 0 0 0 0 0 0 0 0 0 0 3 6 6 10 3 10 6 10 3 6 10 10 10 10 6 10 13 13 16 16 13 13 6 3 0 3 6 3 3 13 13
0 0 0 0 0 0 0 0 0 0 0 0 0 3 3 3 3 0 3 6 6 6 3 6 6 6 6 6 6 10 10 10 16 13 13 6 3 0 3 3 6 6 10 6
0 0 0 0 0 0 0 0 0 0 0 0 0 3 3 3 0 0 3 6 6 10 10 6 6 6 6 6 10 10 10 10 6 6 6 6 3 3 3 3 6 6 6 3
3 6 0 0 0 0 0 0 0 0 0 0 0 3 3 0 0 0 6 6 3 6 10 6 10 10 6 6 6 6 6 3 6 6 3 3 3 3 3 3 3 3 3 3
3 0 0 0 0 0 0 0 0 0 0 0 0 3 6 0 0 0 3 0 6 6 3 3 6 10 10 6 6 6 6 3 3 3 3 3 3 6 3 3 3 3 3 3
6 0 0 0 0 0 0 0 0 0 0 0 0 3 6 0 0 3 3 0 3 6 3 3 6 6 10 10 6 6 6 3 3 3 0 3 3 3 3 3 3 3 3 3
3 3 3 0 0 0 0 0 0 0 0 0 0 6 6 3 0 6 6 3 3 6 6 3 6 10 10 10 10 6 6 6 3 3 3 3 3 3 3 3 3 3 3 3
3 10 3 0 0 0 0 0 0 0 0 0 3 6 6 3 3 10 10 3 3 6 6 6 6 6 10 6 10 13 6 6 3 3 3 0 3 3 3 3 3 6 6 13
3 3 0 0 0 0 0 0 0 0 0 0 3 6 3 3 3 3 6 3 3 3 10 13 10 10 6 6 10 13 6 6 6 3 3 0 0 3 3 6 6 6 10 13
0 0 0 0 0 0 0 0 0 0 0 0 3 6 3 3 0 6 6 3 3 3 6 10 3 6 13 6 10 10 10 10 6 3 3 3 3 3 3 6 6 3 10 10
0 0 0 0 0 0 0 3 0 0 3 6 10 6 3 3 3 10 10 3 3 0 6 13 6 10 10 6 10 10 13 13 6 6 3 6 6 10 6 10 13 10 3 6
3 0 0 0 0 0 0 3 3 6 10 6 6 6 3 6 6 6 10 3 3 6 6 6 3 6 10 10 6 13 13 10 10 10 6 10 10 6 6 10 6 10 10 10
3 3 3 0 0 3 3 3 3 0 6 3 3 3 3 6 6 6 6 3 0 6 10 6 3 6 6 6 10 6 10 10 10 10 13 13 13 6 6 10 6 6 6 6
3 3 6 6 6 0 0 0 0 0 0 0 0 3 6 6 6 6 6 3 6 3 6 10 6 6 6 6 6 10 10 10 6 16 16 10 13 13 13 6 6 6 6 6
3 3 3 3 0 0 3 0 0 0 0 0 0 3 3 3 6 6 6 3 3 3 6 6 10 10 6 10 6 6 6 10 13 16 10 10 10 13 13 6 3 3 6 0
3 3 3 3 0 0 0 0 0 0 0 0 0 0 3 3 6 3 0 3 3 3 3 3 6 6 6 10 10 6 6 6 10 13 6 6 6 10 6 0 0 0 0 0
Height
5851 5853 5853 5854 5855 5856 5856 5857 5857 5857 5856 5856 5856 5856 5856 5855 5855 5854 5853 5852 5850 5850 5849 5847 5846 5844 5843 5841 5839 5837 5835 5833 5831 5829 5827 5825 5823 5821 5819 5816 5814 5812 5810 5808
5850 5850 5851 5851 5852 5853 5854 5854 5854 5854 5853 5854 5854 5854 5854 5853 5852 5851 5850 5849 5848 5847 5846 5845 5843 5842 5840 5838 5836 5834 5832 5830 5828 5826 5824 5821 5819 5817 5815 5813 5810 5808 5806 5804
5847 5849 5848 5849 5850 5851 5851 5852 5852 5852 5851 5852 5852 5853 5852 5851 5850 5849 5847 5846 5845 5844 5843 5841 5840 5839 5837 5835 5833 5831 5829 5827 5825 5823 5820 5818 5815 5813 5810 5808 5806 5804 5801 5799
5844 5845 5845 5846 5847 5848 5849 5849 5849 5849 5850 5850 5851 5851 5850 5848 5847 5846 5844 5843 5841 5840 5840 5838 5837 5836 5834 5832 5831 5829 5826 5824 5821 5819 5816 5814 5811 5809 5807 5804 5802 5799 5797 5794
5841 5842 5843 5844 5845 5845 5846 5846 5846 5847 5847 5848 5848 5848 5848 5845 5844 5843 5841 5840 5838 5837 5836 5835 5834 5832 5831 5829 5827 5825 5823 5820 5817 5815 5813 5810 5807 5805 5803 5800 5797 5795 5792 5790
5838 5838 5839 5841 5841 5842 5843 5844 5844 5844 5845 5845 5845 5845 5844 5843 5841 5840 5839 5837 5836 5835 5833 5832 5831 5829 5828 5826 5824 5822 5820 5817 5814 5811 5809 5806 5803 5801 5798 5796 5793 5791 5789 5786
5834 5835 5836 5837 5838 5839 5840 5841 5842 5843 5843 5843 5842 5841 5841 5839 5838 5837 5836 5835 5833 5832 5830 5829 5828 5826 5824 5822 5820 5818 5816 5813 5811 5808 5805 5802 5799 5797 5795 5792 5790 5787 5785 5782
5832 5833 5833 5834 5835 5836 5837 5838 5840 5841 5841 5841 5838 5838 5838 5836 5835 5834 5833 5832 5830 5829 5827 5826 5824 5822 5821 5819 5817 5815 5813 5810 5807 5804 5801 5798 5796 5793 5791 5788 5785 5783 5781 5778
5828 5830 5830 5831 5832 5833 5833 5834 5836 5837 5836 5836 5836 5835 5834 5832 5831 5830 5830 5828 5827 5826 5824 5823 5821 5819 5817 5815 5813 5811 5809 5806 5803 5800 5797 5795 5792 5789 5787 5784 5781 5779 5776 5774
5824 5826 5826 5827 5828 5829 5830 5831 5831 5832 5832 5833 5833 5831 5831 5829 5828 5827 5826 5825 5824 5822 5821 5819 5817 5816 5814 5812 5810 5807 5805 5802 5800 5797 5794 5791 5789 5786 5782 5779 5777 5775 5772 5770
5819 5821 5822 5823 5824 5825 5826 5827 5827 5828 5829 5829 5830 5831 5827 5825 5824 5824 5823 5821 5820 5819 5817 5816 5814 5812 5810 5808 5806 5804 5801 5799 5796 5793 5791 5788 5785 5782 5778 5775 5773 5771 5769 5766
5815 5817 5818 5819 5820 5820 5822 5822 5823 5824 5824 5824 5825 5828 5823 5822 5821 5820 5819 5818 5816 5815 5814 5812 5810 5808 5806 5804 5802 5800 5797 5795 5792 5790 5787 5784 5781 5778 5775 5772 5770 5767 5765 5763
5810 5812 5814 5815 5817 5817 5817 5817 5818 5819 5820 5820 5821 5823 5818 5817 5817 5816 5814 5813 5812 5811 5810 5808 5806 5804 5802 5800 5798 5796 5793 5791 5789 5786 5783 5780 5778 5775 5772 5769 5766 5764 5762 5759
5805 5807 5810 5812 5812 5812 5812 5813 5814 5815 5815 5816 5816 5816 5814 5813 5813 5812 5810 5809 5808 5807 5805 5804 5802 5800 5798 5797 5795 5792 5790 5788 5785 5782 5780 5777 5774 5771 5768 5765 5763 5760 5758 5756
5800 5802 5803 5805 5806 5807 5807 5808 5809 5809 5810 5811 5811 5810 5810 5809 5809 5808 5806 5805 5804 5802 5801 5800 5798 5796 5795 5793 5791 5789 5786 5784 5781 5779 5776 5773 5771 5768 5765 5762 5759 5757 5754 5752
5794 5796 5798 5799 5800 5801 5802 5802 5803 5804 5805 5805 5806 5806 5805 5805 5804 5803 5802 5801 5799 5798 5796 5795 5794 5793 5791 5789 5787 5785 5782 5780 5777 5775 5772 5769 5767 5764 5761 5758 5755 5753 5750 5748
5788 5790 5792 5794 5794 5795 5796 5797 5798 5798 5799 5800 5800 5801 5800 5800 5799 5798 5797 5797 5795 5794 5792 5791 5790 5788 5787 5785 5783 5781 5778 5776 5773 5771 5768 5765 5762 5760 5757 5754 5751 5749 5746 5744
5782 5784 5785 5787 5788 5789 5792 5791 5792 5793 5793 5794 5794 5795 5794 5794 5794 5793 5793 5792 5791 5790 5788 5787 5785 5784 5782 5780 5778 5776 5774 5772 5769 5766 5763 5761 5758 5755 5753 5750 5747 5745 5742 5740
5774 5777 5778 5780 5781 5782 5783 5784 5785 5786 5787 5788 5788 5788 5789 5788 5788 5788 5787 5787 5786 5785 5783 5782 5781 5779 5778 5776 5774 5772 5770 5767 5765 5762 5759 5756 5753 5751 5748 5746 5743 5740 5738 5735
5767 5769 5772 5773 5775 5776 5778 5777 5779 5781 5780 5781 5781 5782 5783 5783 5783 5783 5782 5781 5780 5779 5778 5777 5775 5774 5772 5771 5769 5767 5765 5763 5760 5758 5755 5752 5749 5746 5743 5741 5738 5735 5733 5730
5759 5761 5763 5765 5767 5769 5770 5771 5772 5775 5774 5774 5775 5776 5776 5777 5777 5777 5776 5775 5774 5774 5772 5771 5770 5769 5767 5765 5763 5761 5760 5757 5755 5752 5750 5747 5744 5741 5738 5735 5732 5730 5727 5724
5751 5754 5756 5758 5760 5763 5762 5764 5766 5766 5767 5768 5768 5769 5770 5770 5770 5770 5770 5769 5769 5768 5767 5766 5765 5763 5762 5760 5758 5756 5754 5752 5749 5747 5744 5741 5739 5736 5733 5730 5727 5724 5721 5719
5743 5746 5748 5751 5753 5753 5755 5756 5758 5759 5760 5761 5762 5762 5763 5763 5763 5763 5763 5763 5763 5762 5761 5760 5759 5757 5756 5754 5753 5751 5749 5746 5743 5741 5738 5736 5733 5730 5727 5724 5721 5718 5715 5713
5735 5737 5740 5742 5743 5745 5747 5748 5750 5751 5753 5754 5755 5755 5756 5756 5756 5756 5756 5756 5756 5755 5754 5754 5752 5751 5750 5748 5747 5745 5743 5740 5737 5735 5732 5729 5727 5724 5721 5718 5715 5712 5709 5707
5727 5729 5731 5733 5735 5737 5738 5741 5742 5744 5745 5746 5747 5748 5748 5749 5749 5749 5749 5749 5749 5748 5748 5747 5746 5745 5744 5742 5741 5739 5736 5734 5731 5729 5726 5723 5721 5718 5715 5712 5710 5707 5704 5701
5718 5721 5723 5725 5726 5729 5731 5732 5734 5736 5737 5738 5740 5740 5741 5742 5742 5742 5742 5742 5742 5741 5741 5740 5739 5738 5737 5736 5734 5732 5730 5728 5725 5723 5720 5718 5715 5712 5710 5707 5704 5701 5698 5696
Wind_Speed
10 10 9 10 10 10 10 9 10 11 13 13 12 11 11 11 11 11 12 14 14 14 14 14 13 13 12 12 12 12 12 14 15 15 16 16 16 17 17 18 18 18 18 19
10 11 11 11 11 10 9 9 10 10 11 12 11 10 11 12 12 13 13 14 14 14 14 14 13 13 13 13 12 12 13 14 15 15 16 16 17 17 18 18 18 18 19 19
11 11 12 12 11 11 10 10 10 11 11 11 11 10 11 12 14 14 13 13 14 13 13 13 13 14 14 14 14 14 16 16 16 16 16 17 17 17 17 18 18 19 19 19
12 12 13 13 12 12 12 12 11 12 12 11 11 11 12 13 14 13 12 13 13 14 13 13 13 14 14 15 15 15 16 17 18 18 18 18 18 18 18 18 18 19 19 18
13 14 13 13 13 13 13 13 13 12 12 12 12 11 11 12 12 12 12 12 12 12 13 13 13 14 15 16 16 16 16 17 17 17 18 18 18 18 18 18 18 18 18 18
14 14 14 14 14 14 13 13 13 12 11 11 11 11 10 11 11 11 11 11 11 11 12 12 13 15 16 16 17 17 17 16 17 18 18 18 18 18 18 17 17 18 18 18
14 14 13 13 14 14 13 12 11 10 10 10 10 11 10 11 11 11 11 11 11 12 12 13 14 15 16 16 17 17 16 16 17 17 18 18 17 18 18 17 18 18 17 17
15 14 14 13 13 13 13 12 11 10 10 11 12 12 12 12 11 11 11 12 12 13 13 14 14 15 16 16 16 17 16 17 17 18 18 17 17 17 17 17 17 17 17 17
16 16 15 14 14 14 13 13 12 12 12 12 12 12 12 12 11 11 12 12 13 13 14 14 14 15 16 16 17 17 17 17 17 17 17 16 17 17 17 17 18 17 17 16
17 17 16 15 15 15 14 14 14 12 12 12 13 13 12 12 12 12 12 13 13 13 14 14 14 15 15 16 16 17 17 17 17 17 17 17 17 18 18 18 17 17 16 15
17 17 17 17 16 15 15 14 14 13 14 13 13 14 14 13 13 13 13 13 13 13 14 14 15 15 16 17 17 17 16 16 17 17 17 17 17 18 17 17 16 16 16 15
18 18 18 17 16 16 16 15 15 15 15 15 14 14 14 13 14 14 14 14 14 14 14 14 15 16 16 17 17 16 16 16 16 17 17 17 17 16 16 16 16 16 16 15
19 18 17 16 17 17 17 16 16 16 16 15 15 15 15 14 14 14 14 15 15 15 15 15 15 16 16 16 16 15 15 15 16 17 16 16 17 17 16 16 16 16 16 15
21 20 19 18 17 18 18 17 17 17 17 16 16 16 16 15 15 14 15 15 14 14 14 15 15 15 15 15 14 14 15 16 16 17 17 17 17 17 17 17 16 16 15 15
22 21 20 20 19 19 19 19 18 18 18 17 17 17 16 16 16 15 15 15 15 14 14 15 15 14 14 14 14 15 15 16 16 16 17 17 17 17 17 17 17 16 16 16
23 22 21 21 21 21 21 20 19 19 18 18 18 18 17 17 16 15 15 15 15 15 15 15 14 14 14 14 14 15 16 16 16 17 17 18 18 18 17 17 17 17 16 17
24 24 23 22 22 22 22 20 20 20 19 19 19 18 18 18 17 16 15 15 15 16 16 15 15 15 15 15 15 16 16 16 17 17 18 19 19 18 17 17 17 17 17 17
26 25 24 23 23 23 22 22 21 20 20 20 20 19 19 19 18 17 16 16 16 16 16 16 16 16 15 15 15 16 17 17 17 18 18 19 19 18 17 17 17 17 18 18
28 27 26 24 24 24 23 23 22 22 22 22 22 21 20 19 19 18 17 17 17 17 17 16 16 16 16 17 17 18 18 18 18 18 19 19 19 19 18 18 18 18 18 18
28 28 27 25 25 25 24 24 23 23 23 23 23 22 21 20 19 19 18 18 18 17 17 17 17 17 17 18 18 18 18 18 19 19 19 19 19 19 19 19 19 18 19 19
27 27 26 26 26 26 26 24 22 22 23 22 22 22 21 21 21 20 19 19 18 18 17 17 17 17 17 18 19 19 19 19 20 20 20 20 20 19 20 20 20 19 19 20
26 27 26 26 26 27 27 25 24 23 23 22 22 22 22 22 21 21 20 19 19 19 18 18 18 18 18 18 19 19 20 20 20 21 21 21 21 21 21 21 21 20 20 20
27 27 27 27 27 27 28 27 26 25 24 23 23 22 22 22 22 22 21 20 20 20 19 19 19 19 19 19 19 20 20 21 21 22 22 22 22 22 22 21 21 21 21 20
28 27 27 27 27 27 27 27 26 26 26 25 24 24 24 23 21 21 21 20 20 20 20 20 19 19 19 20 20 21 21 22 22 22 22 22 23 22 22 22 22 21 20 20
27 27 27 27 27 27 27 26 26 25 25 25 24 24 24 23 22 21 21 20 20 21 21 20 20 20 20 21 21 22 22 22 22 22 22 22 22 22 22 22 22 22 21 21
27 26 26 27 27 27 27 26 26 26 24 24 24 23 23 22 22 21 21 20 20 20 21 21 21 20 20 21 21 21 21 21 21 20 21 21 21 20 21 21 21 21 21 21
Wind_Direction
223 227 230 233 235 237 240 246 254 262 264 268 271 270 271 274 275 278 286 292 290 291 293 296 299 302 304 303 305 309 313 314 314 310 308 308 306 305 305 304 302 300 297 296
224 229 231 234 238 241 246 255 263 267 266 267 268 268 271 277 280 281 287 291 290 292 293 293 296 299 301 301 303 307 314 316 316 314 309 309 306 304 305 304 302 299 298 297
226 230 234 237 241 245 249 257 264 266 266 270 270 272 276 280 283 285 286 288 288 288 294 298 297 301 304 304 304 307 310 313 314 315 313 312 307 306 307 306 304 302 302 300
229 232 236 238 242 248 253 257 263 268 270 274 277 282 281 283 284 287 289 289 289 289 291 295 298 301 303 304 304 305 308 310 311 313 312 312 311 309 309 309 306 304 303 302
233 236 239 242 244 249 254 259 263 270 272 273 277 280 281 282 286 288 290 290 290 291 290 295 298 300 301 302 302 303 308 311 312 311 312 312 311 311 310 309 306 304 304 303
234 238 240 242 246 252 256 260 264 267 271 275 273 275 279 283 285 288 293 294 293 291 291 296 299 299 300 299 300 302 308 311 312 312 314 314 312 311 311 309 307 304 304 304
237 238 241 242 246 250 253 257 264 270 273 275 272 273 278 280 284 288 293 293 294 293 294 296 298 298 299 300 301 304 307 310 311 311 312 312 312 313 312 310 309 306 305 306
239 242 242 243 245 249 250 251 253 255 262 271 272 275 281 282 283 283 288 293 296 295 296 299 300 300 300 301 304 306 306 307 308 310 312 312 312 312 311 310 311 310 308 308
235 240 244 242 243 245 249 250 250 256 260 266 272 275 282 284 282 281 285 290 294 294 296 300 302 304 302 302 304 307 307 308 309 310 311 313 312 312 311 309 309 310 308 307
234 238 243 242 244 247 250 253 253 254 261 267 275 284 283 283 283 284 286 289 293 296 298 299 302 304 304 305 305 307 308 309 308 310 311 311 313 315 312 310 310 311 309 308
235 239 243 244 248 249 250 251 252 255 258 264 273 281 283 285 288 290 290 292 294 295 298 299 301 302 301 302 303 304 306 306 307 309 312 314 316 319 315 313 312 312 311 311
236 239 242 247 248 247 251 254 257 258 260 263 269 277 282 286 289 290 290 292 294 296 298 299 301 302 302 301 303 300 301 305 309 312 313 315 318 320 321 317 316 314 311 310
235 239 243 248 251 250 251 253 255 256 258 261 268 276 283 284 287 290 290 291 293 295 295 296 299 300 302 304 307 305 305 306 309 313 315 318 318 319 319 318 316 314 312 310
239 240 241 246 251 255 255 256 257 257 258 262 268 273 278 281 284 288 288 288 291 294 294 295 297 299 299 301 305 307 308 308 310 313 315 317 319 319 318 317 316 313 311 311
240 243 245 246 248 253 256 258 258 258 259 262 267 272 276 280 284 287 288 288 291 292 293 294 295 296 296 299 302 305 308 309 310 312 314 317 317 317 317 317 316 313 310 309
242 246 248 250 250 254 256 256 257 258 257 260 264 270 273 276 280 284 285 286 289 290 292 293 293 295 295 297 300 304 306 308 308 310 312 315 316 316 316 312 311 311 309 308
244 246 249 251 253 254 253 255 257 258 257 259 263 268 271 274 276 279 280 281 284 287 292 292 291 293 295 297 299 301 304 307 309 310 312 313 314 315 316 314 310 309 309 309
246 247 249 251 252 254 256 256 255 256 258 260 263 268 271 274 275 275 275 277 281 285 288 288 288 291 294 297 298 301 306 310 311 311 312 313 313 312 311 311 310 309 308 308
247 247 249 250 252 256 257 256 255 257 259 262 265 268 270 272 275 274 274 276 279 285 286 284 284 288 292 295 297 298 301 305 309 311 312 312 312 311 309 308 306 305 306 306
248 248 248 249 252 255 257 257 257 258 260 262 263 266 268 269 271 273 274 276 279 281 282 281 282 286 291 294 296 297 300 303 306 308 308 309 311 310 309 307 304 304 305 306
246 246 247 249 251 253 255 256 256 257 258 260 261 263 264 265 268 270 274 275 276 279 281 280 281 285 289 293 295 296 299 301 303 305 306 308 309 310 311 309 306 304 304 306
248 248 247 249 249 250 252 253 254 255 256 258 260 261 263 266 268 270 272 275 275 278 278 279 281 284 288 290 292 295 298 301 303 304 305 307 307 309 310 309 307 305 304 305
246 246 248 248 249 251 251 252 253 254 256 258 259 261 264 266 268 269 271 273 276 277 277 278 279 281 285 288 292 295 298 300 302 303 304 305 306 308 309 309 307 305 304 304
247 246 246 247 250 251 251 252 253 254 256 258 259 261 263 264 267 269 269 271 274 275 275 277 279 279 283 287 291 294 296 298 301 302 303 303 304 306 307 308 307 306 305 305
246 245 245 246 248 250 250 251 253 254 255 256 258 260 261 263 266 268 272 273 274 275 276 277 278 279 281 286 291 294 296 298 299 301 302 303 304 304 305 306 305 305 306 306
245 246 246 246 248 249 250 252 253 254 254 254 256 258 259 263 267 269 272 273 274 277 279 278 278 279 280 285 290 294 298 300 302 304 306 307 308 309 310 311 311 311 311 310